Regional Weather Roundup
Issued by NWS

Home | Current Version | Previous Version | Graphics & Text | Print | Product List | Glossary On
Versions: 1 2 3 4 5 6 7 8 9 10 11 12 13 14 15 16 17 18 19 20 21 22 23 24 25 26 27 28 29 30 31 32 33 34 35 36 37 38 39 40 41 42 43 44 45 46 47 48 49 50
000
ASUS45 KBOI 311510
RWRID

IDAHO REGIONAL WEATHER ROUNDUP
NATIONAL WEATHER SERVICE BOISE ID
900 AM MDT MON AUG 31 2015

NOTE: "FAIR" INDICATES FEW OR NO CLOUDS BELOW 12000 FEET
WITH NO SIGNIFICANT WEATHER AND/OR OBSTRUCTIONS TO VISIBILITY

IDZ012-014-311600-
SOUTHWEST IDAHO


CITY           SKY/WX    TMP DP  RH WIND       PRES   REMARKS
BOISE          SUNNY     57  43  59 S3        30.10R
CALDWELL       SUNNY     57  39  51 CALM      30.11R
MOUNTAIN HOME  SUNNY     58  42  53 W8        30.09R
$$

IDZ016-017-311600-
SOUTHCENTRAL IDAHO


CITY           SKY/WX    TMP DP  RH WIND       PRES   REMARKS
BURLEY         SUNNY     55  41  59 S3        30.13R
JEROME         SUNNY     56  41  57 S7        30.14R
TWIN FALLS     SUNNY     62  34  35 S9        30.14R
$$

IDZ019>023-311600-
SOUTHEAST IDAHO


CITY           SKY/WX    TMP DP  RH WIND       PRES   REMARKS
IDAHO FALLS    SUNNY     57  37  47 SW17      30.14R
POCATELLO      SUNNY     61  35  37 SW10      30.15R
REXBURG        SUNNY     57  34  41 SW7       30.14R
$$

IDZ006-010-011-018-031-032-311600-
CENTRAL IDAHO MOUNTAINS


CITY           SKY/WX    TMP DP  RH WIND       PRES   REMARKS
MCCALL         SUNNY     46  39  76 CALM      30.14R
HAILEY         MOSUNNY   52  36  54 NW12      30.17S
STANLEY          N/A     39  30  70 CALM      30.21S
SALMON         MOSUNNY   48  39  71 CALM      30.11S
CHALLIS        MOSUNNY   52  37  56 CALM      30.14R
$$

IDZ002-004-006-007-026-311600-
NORTHERN IDAHO


CITY           SKY/WX    TMP DP  RH WIND       PRES   REMARKS
LEWISTON       PTSUNNY   58  49  72 CALM      30.06R
LOWELL           N/A     53  50  89 CALM      30.12S
COEUR D`ALENE  PTSUNNY   55  46  71 S14       30.05R
MULLAN PASS    PTSUNNY   40  37  89 W8        30.10R WCI  34
$$



USA.gov is the U.S. government's official web portal to all federal, state and local government web resources and services.